Chetumal, Mexico

9:27 AM on April 25, 2017 (GMT +0000)
Chetumal International

Weather History for MMCM - October, 2012

Change the Weather History Date:

Friday, October 26, 2012

  Actual Average Record
Temperature  
Mean Temperature 80 °F -  
Max Temperature 93 °F 82 °F 93 °F (2012)
Min Temperature 66 °F 71 °F 64 °F (2005)
Cooling Degree Days 14    
Growing Degree Days 30 (Base 50)    
Moisture  
Dew Point 72 °F    
Average Humidity 77    
Maximum Humidity 96    
Minimum Humidity 33    
Precipitation  
Precipitation 0.00 in - - ()
Sea Level Pressure  
Sea Level Pressure 29.82 in    
Wind  
Wind Speed 2 mph ()    
Max Wind Speed 7 mph    
Max Gust Speed -    
Visibility 5.6 miles    
Events      
Averages and records for this station are not official NWS values.
T = Trace of Precipitation, MM = Missing Value Source: Averaged Metar Reports

Daily Weather History Graph

Daily Weather History Graph

Search for Another Location

Airport or City:

Trip Planner

Search our weather history database for the weather conditions in past years. The results will help you decide how hot, cold, wet, or windy it might be!

Date:

Astronomy

Oct. 26, 2012 Rise Set
Actual Time 6:50 AM CDT 6:23 PM CDT
Civil Twilight 6:28 AM CDT 6:45 PM CDT
Nautical Twilight 6:02 AM CDT 7:11 PM CDT
Astronomical Twilight 5:37 AM CDT 7:36 PM CDT
Moon 4:22 PM CDT (10/26) 4:07 AM CDT (10/26)
Length of Visible Light 12h 17m
Length of Day
11h 32m
Waxing Gibbous, 91% of the Moon is Illuminated
Oct 26
Waxing Gibbous
Oct 29
Full
Nov 6
Last Quarter
Nov 13
New
Nov 20
First Quarter

Hourly Weather History & Observations

Time (CDT) Temp. Heat Index Dew Point Humidity Pressure Visibility Wind Dir Wind Speed Gust Speed Precip Events Conditions
12:50 AM 69 °F - 67 °F 91% 29.83 in 5 mi NW 2.2 mph - -   Scattered Clouds
1:40 AM 69.8 °F - 62.6 °F 78% 29.79 in 7.0 mi Calm Calm - N/A   Clear
3:50 AM 69 °F - 67 °F 89% 29.80 in 5 mi Calm Calm - -   Scattered Clouds
5:42 AM 71.6 °F - 64.4 °F 78% 29.78 in 7.0 mi Calm Calm - N/A   Clear
6:42 AM 73.4 °F - 66.2 °F 78% 29.81 in 5.0 mi Calm Calm - N/A   Haze
6:50 AM 68 °F - 67 °F 96% 29.84 in 6 mi West 2.2 mph - -   Scattered Clouds
7:43 AM 73.4 °F - 68.0 °F 83% 29.82 in 4.0 mi Calm Calm - N/A   Haze
8:05 AM 75.2 °F - 68.0 °F 78% 29.82 in 1.5 mi North 6.9 mph - N/A   Mist
8:24 AM 75.2 °F - 71.6 °F 89% 29.83 in 0.8 mi North 5.8 mph - N/A   Mist
8:45 AM 75.2 °F - 71.6 °F 89% 29.83 in 0.8 mi North 5.8 mph - N/A   Mist
9:50 AM 77 °F - 73 °F 85% 29.88 in 6 mi WNW 6.7 mph - -   Mostly Cloudy
9:50 AM 78.8 °F - 73.4 °F 83% 29.86 in 3.0 mi NNW 6.9 mph - N/A   Mostly Cloudy
10:41 AM 82.4 °F 88.2 °F 73.4 °F 74% 29.85 in 5.0 mi NNW 6.9 mph - N/A   Haze
12:48 PM 87.8 °F 99.7 °F 77.0 °F 70% 29.83 in 7.0 mi NNW 6.9 mph - N/A   Mostly Cloudy
12:50 PM 90 °F - 70 °F 43% 29.85 in 6 mi WNW 6.7 mph - -   Partly Cloudy
12:50 PM 87.8 °F 99.7 °F 77.0 °F 70% 29.83 in 7.0 mi NNW 6.9 mph - N/A   Mostly Cloudy
1:42 PM 87.8 °F 99.7 °F 77.0 °F 70% 29.80 in 7.0 mi Calm Calm - N/A   Mostly Cloudy
2:45 PM 87.8 °F 99.7 °F 77.0 °F 70% 29.77 in 7.0 mi Calm Calm - N/A   Mostly Cloudy
3:50 PM 93 °F - 67 °F 33% 29.79 in 6 mi NNW 4.5 mph - -   Partly Cloudy
4:00 PM 86.0 °F 95.1 °F 75.2 °F 70% 29.77 in 7.0 mi WNW 6.9 mph - N/A   Scattered Clouds
4:40 PM 86.0 °F 95.1 °F 75.2 °F 70% 29.76 in 7.0 mi WNW 6.9 mph - N/A   Scattered Clouds
6:40 PM 84.2 °F 92.3 °F 75.2 °F 74% 29.78 in 7.0 mi Calm Calm - N/A   Scattered Clouds
6:50 PM 81 °F - 72 °F 69% 29.81 in 6 mi West 2.2 mph - -   Scattered Clouds
7:40 PM 82.4 °F 89.5 °F 75.2 °F 79% 29.79 in 7.0 mi Calm Calm - N/A   Clear
8:40 PM 80.6 °F 86.2 °F 75.2 °F 84% 29.81 in 7.0 mi Calm Calm - N/A   Clear
9:40 PM 80.6 °F 86.2 °F 75.2 °F 84% 29.83 in 7.0 mi Calm Calm - N/A   Clear
9:50 PM 72 °F - 71 °F 94% 29.87 in 5 mi WSW 2.2 mph - -   Scattered Clouds
11:45 PM 78.8 °F - 73.4 °F 83% 29.85 in 7.0 mi Calm Calm - N/A   Scattered Clouds